Flag for Switzerland Weather past 2 weeks in Buchs, St. Gallen, Switzerland

Now
62 °F

Cool.


Feels Like: 62 °F
Forecast: 57 / 74 °F
Wind: 5 mph from Southeast

Location: Vaduz

Current Time: Aug 29, 2014 at 8:23:02 AM

Latest Report: Aug 29, 2014 at 7:00 AM


Visibility: N/A

Pressure: 30.07 "Hg

Humidity: 75%

Dew point: 54 °F

Location of BuchsLocation

Historic Weather in Buchs — Graph

°F

Buchs temperature yesterday

Maximum temperature yesterday: 73 °F (at 4:00 PM)
Minimum temperature yesterday: 54 °F (at 1:00 AM)
Average temperature yesterday: 63 °F

Past Weeks' High & Low Weather Summary

 TemperatureHumidityPressure
High73 °F (Aug 28, 4:00 PM)98% (Aug 21, 7:00 AM)30.20 "Hg (Aug 21, 7:00 AM)
Low48 °F (Aug 25, 1:00 AM)46% (Aug 22, 4:00 PM)29.79 "Hg (Aug 26, 7:00 AM)
Average60 °F75%30.00 "Hg
* Reported Aug 14 11:00 AM — Aug 29 7:00 AM, Buchs, Weather by CustomWeather, © 2014

Note: Actual official high and low records may vary slightly from our data, if they occured in-between our weather recording intervals... More about our weather records

Advertising

Buchs weather history for previous 24 hours

 ConditionsComfort  
Time TempWeatherWind HumidityBarometerVisibility
7:00 AM
Aug 29
62 °FCool.5 mph75%30.07 "HgN/A
6:00 AM62 °FMild.6 mph75%30.06 "HgN/A
5:00 AM63 °FFog.7 mph75%30.07 "Hg5 mi
4:00 AM63 °FMild.5 mph75%30.07 "HgN/A
3:00 AM64 °FMild.5 mph73%30.06 "HgN/A
2:00 AM65 °FFog.5 mph73%30.07 "Hg5 mi
1:00 AM64 °FMild.3 mph75%30.08 "HgN/A
12:00 AM62 °FCool.2 mph86%30.09 "HgN/A
11:00 PM
Aug 28
60 °FFog.2 mph93%30.09 "Hg5 mi
10:00 PM62 °FMild.No wind89%30.07 "HgN/A
9:00 PM64 °FMild.No wind83%30.06 "HgN/A
8:00 PM66 °FScattered clouds.1 mph80%30.03 "Hg6 mi
7:00 PM71 °FMild.5 mph57%30.00 "HgN/A
6:00 PM73 °FMild.6 mph55%30.00 "HgN/A
5:00 PM73 °FScattered clouds.6 mph55%29.99 "Hg5 mi
4:00 PM73 °FMild.8 mph56%30.00 "HgN/A
3:00 PM73 °FMild.6 mph56%30.00 "HgN/A
2:00 PM72 °FScattered clouds.6 mph53%30.01 "Hg6 mi
1:00 PM70 °FMild.6 mph57%30.02 "HgN/A
12:00 PM68 °FMild.2 mph62%30.04 "HgN/A
11:00 AM65 °FFog.1 mph65%30.07 "Hg6 mi
10:00 AM63 °FMild.3 mph68%30.08 "HgN/A
9:00 AM59 °FCool.3 mph78%30.09 "HgN/A
8:00 AM58 °FPartly sunny.6 mph75%30.09 "Hg11 mi
Weather by CustomWeather, © 2014

See weather overviewHow to use our weather pages